Location: Albuquerque Trailhead
(34.7934°N, 106.3736°W)
Time: 00:09:33
(UTC+00:00)

H-2A R/B - Pass Details

Date: 20 June 2021
Orbit: 574 x 597 km, 98.2° (Epoch: 01 August)

Event Time Altitude Azimuth Distance (km) Brightness Sun altitude
Rises 04:50:07 0° 15° (NNE) 2,788 7.5 -23.3°
Reaches altitude 10° 04:52:17 10° 18° (NNE) 1,886 6.5 -23.6°
Enters shadow 04:55:35 54° 47° (NE) 705 3.8 -23.9°
